Kankakee, IL

9:20 AM CST on January 20, 2018 (GMT -0600)
Greater Kankakee

Weather History for KIKK - November, 2011

Change the Weather History Date:

Sunday, November 27, 2011

  Actual Average Record
Temperature  
Mean Temperature 38 °F -  
Max Temperature 42 °F 46 °F 67 °F (1990)
Min Temperature 35 °F 28 °F 4 °F (1977)
Degree Days  
Heating Degree Days 26    
Moisture  
Dew Point 37 °F    
Average Humidity 92    
Maximum Humidity 100    
Minimum Humidity 87    
Precipitation  
Precipitation 0.06 in - - ()
Sea Level Pressure  
Sea Level Pressure 29.92 in    
Wind  
Wind Speed 11 mph (NW)    
Max Wind Speed 14 mph    
Max Gust Speed 22 mph    
Visibility 8 miles    
Events Rain    
Averages and records for this station are not official NWS values.
T = Trace of Precipitation, MM = Missing Value Source: NWS Daily Summary

Daily Weather History Graph

Daily Weather History Graph

Search for Another Location

Airport or City:

Trip Planner

Search our weather history database for the weather conditions in past years. The results will help you decide how hot, cold, wet, or windy it might be!

Date:

Astronomy

Nov. 27, 2011 Rise Set
Actual Time 6:52 AM CST 4:25 PM CST
Civil Twilight 6:22 AM CST 4:55 PM CST
Nautical Twilight 5:48 AM CST 5:29 PM CST
Astronomical Twilight 5:15 AM CST 6:02 PM CST
Moon 9:17 AM CST (11/27) 7:03 PM CST (11/27)
Length of Visible Light 10h 33m
Length of Day
9h 32m
Waxing Crescent, 8% of the Moon is Illuminated
Nov 27
Waxing Crescent
Dec 2
First Quarter
Dec 10
Full
Dec 17
Last Quarter
Dec 24
New

Hourly Weather History & Observations

Time (CST) Temp. Windchill Dew Point Humidity Pressure Visibility Wind Dir Wind Speed Gust Speed Precip Events Conditions
12:15 AM 42.8 °F 37.0 °F 41.0 °F 93% 29.80 in 7.0 mi WNW 10.4 mph 16.1 mph 0.02 in Rain Rain
12:35 AM 42.8 °F 36.2 °F 41.0 °F 93% 29.81 in 10.0 mi WNW 12.7 mph 19.6 mph 0.04 in Rain Light Rain
12:55 AM 42.8 °F 35.8 °F 41.0 °F 93% 29.80 in 10.0 mi WNW 13.8 mph 18.4 mph 0.04 in   Drizzle
1:15 AM 42.8 °F 36.6 °F 41.0 °F 93% 29.82 in 4.0 mi West 11.5 mph 20.7 mph N/A   Light Drizzle
1:35 AM 42.8 °F 36.2 °F 41.0 °F 93% 29.83 in 7.0 mi West 12.7 mph - N/A Rain Rain
1:55 AM 42.8 °F 36.6 °F 41.0 °F 93% 29.82 in 7.0 mi WNW 11.5 mph 17.3 mph N/A   Drizzle
2:15 AM 42.8 °F 36.6 °F 41.0 °F 93% 29.82 in 10.0 mi WNW 11.5 mph - 0.01 in Rain Rain
2:35 AM 42.8 °F 37.0 °F 39.2 °F 87% 29.81 in 10.0 mi WNW 10.4 mph 19.6 mph 0.01 in Rain Rain
2:55 AM 42.8 °F 36.6 °F 39.2 °F 87% 29.82 in 10.0 mi West 11.5 mph 17.3 mph 0.02 in   Drizzle
3:15 AM 42.8 °F 36.6 °F 41.0 °F 93% 29.83 in 10.0 mi West 11.5 mph 17.3 mph N/A   Overcast
3:35 AM 42.8 °F 36.6 °F 41.0 °F 93% 29.83 in 10.0 mi WNW 11.5 mph 18.4 mph N/A   Overcast
3:55 AM 42.8 °F 37.0 °F 41.0 °F 93% 29.84 in 10.0 mi West 10.4 mph - N/A   Overcast
4:15 AM 42.8 °F 37.0 °F 41.0 °F 93% 29.85 in 10.0 mi West 10.4 mph - N/A   Overcast
4:35 AM 42.8 °F 37.5 °F 41.0 °F 93% 29.86 in 10.0 mi WNW 9.2 mph - N/A   Overcast
4:55 AM 42.8 °F 36.6 °F 41.0 °F 93% 29.83 in 10.0 mi WNW 11.5 mph 21.9 mph N/A   Overcast
5:15 AM 42.8 °F 36.6 °F 41.0 °F 93% 29.84 in 10.0 mi WNW 11.5 mph 20.7 mph N/A   Overcast
5:35 AM 42.8 °F 37.5 °F 41.0 °F 93% 29.86 in 10.0 mi WNW 9.2 mph 20.7 mph N/A   Overcast
5:55 AM 42.8 °F 37.0 °F 39.2 °F 87% 29.85 in 10.0 mi NW 10.4 mph 17.3 mph N/A   Overcast
6:15 AM 42.8 °F 37.5 °F 39.2 °F 87% 29.85 in 10.0 mi NW 9.2 mph 16.1 mph N/A   Light Drizzle
6:35 AM 41.0 °F 34.3 °F 39.2 °F 93% 29.85 in 10.0 mi NW 11.5 mph 18.4 mph N/A Rain Rain
6:55 AM 41.0 °F 37.1 °F 39.2 °F 93% 29.88 in 10.0 mi NW 5.8 mph 17.3 mph N/A   Overcast
7:15 AM 41.0 °F 34.3 °F 37.4 °F 87% 29.88 in 10.0 mi NW 11.5 mph 16.1 mph N/A   Light Drizzle
7:35 AM 41.0 °F 34.3 °F 37.4 °F 87% 29.88 in 10.0 mi NW 11.5 mph 18.4 mph N/A Rain Light Rain
7:55 AM 41.0 °F 35.8 °F 37.4 °F 87% 29.90 in 10.0 mi NW 8.1 mph - N/A   Drizzle
8:15 AM 41.0 °F 35.8 °F 37.4 °F 87% 29.91 in 10.0 mi NW 8.1 mph - N/A   Drizzle
8:35 AM 41.0 °F 34.3 °F 37.4 °F 87% 29.91 in 5.0 mi WNW 11.5 mph 16.1 mph N/A Rain Rain
8:55 AM 41.0 °F 34.3 °F 37.4 °F 87% 29.92 in 2.5 mi WNW 11.5 mph 18.4 mph N/A   Drizzle
9:15 AM 39.2 °F 32.0 °F 37.4 °F 93% 29.94 in 1.8 mi NW 11.5 mph 19.6 mph N/A   Light Drizzle
9:35 AM 37.4 °F 29.8 °F 37.4 °F 100% 29.95 in 2.0 mi NW 11.5 mph 16.1 mph N/A   Light Drizzle
9:55 AM 37.4 °F 29.3 °F 37.4 °F 100% 29.94 in 3.0 mi WNW 12.7 mph 17.3 mph N/A   Overcast
10:15 AM 37.4 °F 28.9 °F 35.6 °F 93% 29.94 in 3.0 mi NW 13.8 mph 18.4 mph N/A   Light Drizzle
10:35 AM 37.4 °F 28.9 °F 35.6 °F 93% 29.94 in 5.0 mi NW 13.8 mph 19.6 mph N/A   Light Drizzle
10:55 AM 37.4 °F 29.3 °F 35.6 °F 93% 29.95 in 2.0 mi NW 12.7 mph 18.4 mph N/A   Overcast
11:15 AM 37.4 °F 30.3 °F 35.6 °F 93% 29.95 in 4.0 mi NW 10.4 mph - N/A   Overcast
11:35 AM 37.4 °F 30.8 °F 35.6 °F 93% 29.95 in 7.0 mi NW 9.2 mph - N/A   Overcast
11:55 AM 37.4 °F 30.8 °F 35.6 °F 93% 29.96 in 7.0 mi NW 9.2 mph - N/A   Overcast
12:15 PM 37.4 °F 31.4 °F 35.6 °F 93% 29.96 in 3.0 mi NW 8.1 mph - N/A   Overcast
12:35 PM 37.4 °F 30.3 °F 35.6 °F 93% 29.96 in 2.5 mi NW 10.4 mph - N/A   Overcast
12:55 PM 37.4 °F 31.4 °F 35.6 °F 93% 29.97 in 2.5 mi NW 8.1 mph - N/A   Light Drizzle
1:15 PM 37.4 °F 30.8 °F 35.6 °F 93% 29.97 in 2.5 mi NNW 9.2 mph - N/A   Drizzle
1:35 PM 37.4 °F 30.8 °F 35.6 °F 93% 29.98 in 2.0 mi NW 9.2 mph - N/A   Drizzle
1:55 PM 37.4 °F 30.3 °F 35.6 °F 93% 29.97 in 2.5 mi NW 10.4 mph - N/A   Light Drizzle
2:15 PM 37.4 °F 30.8 °F 35.6 °F 93% 29.99 in 10.0 mi NNW 9.2 mph - N/A   Overcast
2:35 PM 37.4 °F 30.3 °F 35.6 °F 93% 29.98 in 10.0 mi NW 10.4 mph - N/A   Overcast
2:55 PM 37.4 °F 30.3 °F 35.6 °F 93% 30.01 in 10.0 mi NW 10.4 mph - N/A   Overcast
3:15 PM 37.4 °F 30.3 °F 35.6 °F 93% 30.02 in 10.0 mi NNW 10.4 mph - N/A   Overcast
3:35 PM 37.4 °F 31.4 °F 33.8 °F 87% 30.02 in 10.0 mi NW 8.1 mph 17.3 mph N/A   Overcast
3:55 PM 37.4 °F 31.4 °F 33.8 °F 87% 30.02 in 10.0 mi NNW 8.1 mph 16.1 mph N/A   Overcast
4:15 PM 37.4 °F 30.3 °F 33.8 °F 87% 30.04 in 10.0 mi NW 10.4 mph - N/A   Overcast
4:35 PM 35.6 °F 28.6 °F 33.8 °F 93% 30.05 in 10.0 mi NNW 9.2 mph 16.1 mph N/A   Overcast
4:55 PM 35.6 °F 29.2 °F 33.8 °F 93% 30.06 in 10.0 mi NNW 8.1 mph 16.1 mph N/A   Overcast
5:15 PM 35.6 °F 28.0 °F 33.8 °F 93% 30.06 in 10.0 mi NW 10.4 mph 16.1 mph N/A   Overcast
5:35 PM 35.6 °F 29.9 °F 33.8 °F 93% 30.08 in 10.0 mi NW 6.9 mph 16.1 mph N/A   Overcast
5:55 PM 35.6 °F 29.2 °F 32.0 °F 87% 30.07 in 10.0 mi NNW 8.1 mph - N/A   Overcast
6:15 PM 35.6 °F 28.6 °F 32.0 °F 87% 30.07 in 10.0 mi NNW 9.2 mph 17.3 mph N/A   Overcast
6:35 PM 35.6 °F 28.6 °F 32.0 °F 87% 30.09 in 10.0 mi NW 9.2 mph - N/A   Overcast
6:55 PM 35.6 °F 29.9 °F 32.0 °F 87% 30.10 in 10.0 mi NW 6.9 mph - N/A   Overcast
7:15 PM 35.6 °F 30.7 °F 32.0 °F 87% 30.10 in 10.0 mi NNW 5.8 mph - N/A   Overcast
7:35 PM 35.6 °F 29.2 °F 32.0 °F 87% 30.10 in 10.0 mi NNW 8.1 mph - N/A   Overcast
7:55 PM 35.6 °F 28.0 °F 32.0 °F 87% 30.10 in 10.0 mi NNW 10.4 mph - N/A   Overcast
8:15 PM 35.6 °F 29.9 °F 32.0 °F 87% 30.10 in 10.0 mi NNW 6.9 mph - N/A   Overcast
8:35 PM 35.6 °F 28.6 °F 32.0 °F 87% 30.09 in 10.0 mi NNW 9.2 mph - N/A   Overcast
8:55 PM 35.6 °F 29.2 °F 32.0 °F 87% 30.10 in 10.0 mi NNW 8.1 mph - N/A   Overcast
9:15 PM 35.6 °F 28.0 °F 32.0 °F 87% 30.11 in 10.0 mi NNW 10.4 mph - N/A   Overcast
9:35 PM 35.6 °F 27.5 °F 32.0 °F 87% 30.11 in 10.0 mi NNW 11.5 mph 16.1 mph N/A   Overcast
9:55 PM 35.6 °F 29.9 °F 32.0 °F 87% 30.12 in 10.0 mi NNW 6.9 mph - N/A   Overcast
10:15 PM 35.6 °F 29.2 °F 32.0 °F 87% 30.11 in 10.0 mi NNW 8.1 mph - N/A   Overcast
10:35 PM 35.6 °F 29.2 °F 30.2 °F 81% 30.11 in 10.0 mi NNW 8.1 mph 17.3 mph N/A   Overcast
10:55 PM 35.6 °F 29.9 °F 32.0 °F 87% 30.12 in 10.0 mi NNW 6.9 mph 16.1 mph N/A   Overcast
11:15 PM 35.6 °F 28.6 °F 30.2 °F 81% 30.10 in 10.0 mi NNW 9.2 mph - N/A   Overcast
11:35 PM 35.6 °F 29.2 °F 30.2 °F 81% 30.11 in 10.0 mi NNW 8.1 mph - N/A   Overcast
11:55 PM 35.6 °F 29.2 °F 30.2 °F 81% 30.12 in 10.0 mi NNW 8.1 mph - N/A   Overcast